User: anonymous   Login
Location: Bannatyne
(13.0833°N, 59.5333°W)
Time: 13:39:11
(UTC+00:00)
Language:

Cosmos 2058 Rocket - Orbit

View from above orbital plane
View from above orbital plane
View from above satellite
View from above satellite

Ground track
Ground track

The orbit data is extracted from the following two-line orbital elements,

1 20466U 90010B   19344.13120944  .00000063  00000-0  50318-5 0  9994
2 20466  82.5045 244.8722 0019141 240.8434 119.0865 14.81370630611612
Epoch (UTC): 10 December 2019 03:08:56
Eccentricity: 0.0019141
inclination: 82.5045°
perigee height: 611 km
apogee height: 638 km
right ascension of ascending node: 244.8722°
argument of perigee: 240.8434°
revolutions per day: 14.81370630
mean anomaly at epoch: 119.0865°
orbit number at epoch: 61161

The dashed part of the orbit path shows where the satellite is in the earth's shadow,  

DLR